Weather History for Williams, AZ

Change the Weather History Date:

Sunday, October 28, 2012

  Actual Average (KFLG) Record (KFLG)
Temperature  
Mean Temperature 50 °F 43 °F  
Max Temperature 68 °F 58 °F 74 °F (1950)
Min Temperature 33 °F 28 °F 13 °F (1954)
Degree Days  
Heating Degree Days 14 22  
Month to date heating degree days 498  
Since 1 July heating degree days 815  
Cooling Degree Days 0 0  
Month to date cooling degree days 0  
Year to date cooling degree days 117  
Moisture  
Dew Point 10 °F    
Average Humidity 23    
Maximum Humidity 41    
Minimum Humidity 10    
Precipitation  
Precipitation 0.00 in 0.06 in 1.61 in (2004)
Month to date precipitation 1.49  
Year to date precipitation 18.06  
Snow  
Snow 0.00 in 0.10 in 9.80 in (2004)
Month to date snowfall 1.1  
Since 1 July snowfall 1.1  
Snow Depth -    
Sea Level Pressure  
Sea Level Pressure 30.31 in    
Wind  
Wind Speed 7 mph (South)    
Max Wind Speed 12 mph    
Max Gust Speed -    
Visibility 9 miles    
Events      
T = Trace of Precipitation, MM = Missing Value Source: NWS Daily Summary

Daily Weather History Graph

Daily Weather History Graph

Search for Another Location

Airport:

Trip Planner

Search our weather history database for the weather conditions in past years. The results will help you decide how hot, cold, wet, or windy it might be!

Date:

Astronomy

Oct. 28, 2012 Rise Set
Actual Time 6:47 AM MST 5:37 PM MST
Civil Twilight 6:20 AM MST 6:03 PM MST
Nautical Twilight 5:50 AM MST 6:33 PM MST
Astronomical Twilight 5:21 AM MST 7:03 PM MST
Moon 4:57 PM MST (10/28) 5:44 AM MST (10/28)
Length of Visible Light 11h 42m
Length of Day
10h 50m
Waxing Gibbous, 99% of the Moon is Illuminated
Oct 28
Waxing Gibbous
Oct 29
Full
Nov 6
Last Quarter
Nov 13
New
Nov 20
First Quarter

Hourly Weather History & Observations

Time (MST) Temp. Windchill Dew Point Humidity Pressure Visibility Wind Dir Wind Speed Gust Speed Precip Events Conditions
12:15 AM 39.2 °F 33.6 °F 6.8 °F 26% 30.30 in 10.0 mi SSE 8.1 mph - N/A   Clear
12:35 AM 39.2 °F 34.2 °F 8.6 °F 28% 30.30 in 10.0 mi SSE 6.9 mph - N/A   Clear
12:55 AM 39.2 °F 34.2 °F 8.6 °F 28% 30.29 in 10.0 mi SSE 6.9 mph - N/A   Clear
1:15 AM 39.2 °F 34.2 °F 8.6 °F 28% 30.30 in 10.0 mi SSE 6.9 mph - N/A   Clear
1:35 AM 39.2 °F 34.2 °F 8.6 °F 28% 30.30 in 10.0 mi SSE 6.9 mph - N/A   Clear
2:15 AM 39.2 °F 34.2 °F 10.4 °F 31% 30.29 in 10.0 mi SSE 6.9 mph - N/A   Clear
2:35 AM 39.2 °F 33.6 °F 10.4 °F 31% 30.29 in 10.0 mi SSE 8.1 mph - N/A   Clear
2:55 AM 39.2 °F 32.5 °F 10.4 °F 31% 30.29 in 10.0 mi SSE 10.4 mph - N/A   Clear
3:15 AM 39.2 °F 33.0 °F 10.4 °F 31% 30.29 in 10.0 mi SSE 9.2 mph - N/A   Clear
3:35 AM 39.2 °F 33.0 °F 10.4 °F 31% 30.28 in 10.0 mi SSE 9.2 mph - N/A   Clear
3:55 AM 37.4 °F 31.4 °F 10.4 °F 33% 30.29 in 10.0 mi SSE 8.1 mph - N/A   Clear
4:15 AM 35.6 °F 28.0 °F 10.4 °F 35% 30.29 in 10.0 mi SSE 10.4 mph - N/A   Clear
4:35 AM 33.8 °F 26.4 °F 10.4 °F 38% 30.29 in 10.0 mi SSE 9.2 mph - N/A   Clear
4:55 AM 39.2 °F 32.5 °F 10.4 °F 31% 30.29 in 10.0 mi SSE 10.4 mph - N/A   Clear
5:15 AM 37.4 °F 30.8 °F 10.4 °F 33% 30.29 in 10.0 mi SSE 9.2 mph - N/A   Clear
5:55 AM 37.4 °F 29.8 °F 10.4 °F 33% 30.30 in 10.0 mi SSE 11.5 mph - N/A   Clear
6:15 AM 35.6 °F 28.0 °F 10.4 °F 35% 30.30 in 10.0 mi SSE 10.4 mph - N/A   Clear
6:35 AM 33.8 °F 25.8 °F 10.4 °F 38% 30.30 in 10.0 mi SSE 10.4 mph - N/A   Clear
6:55 AM 37.4 °F 31.4 °F 10.4 °F 33% 30.30 in 10.0 mi SSE 8.1 mph - N/A   Clear
7:15 AM 37.4 °F 30.3 °F 10.4 °F 33% 30.31 in 10.0 mi SSE 10.4 mph - N/A   Clear
7:35 AM 39.2 °F 33.0 °F 10.4 °F 31% 30.31 in 10.0 mi SSE 9.2 mph - N/A   Clear
7:55 AM 42.8 °F 38.0 °F 10.4 °F 27% 30.32 in 10.0 mi SSE 8.1 mph - N/A   Clear
8:15 AM 44.6 °F 40.7 °F 10.4 °F 25% 30.32 in 10.0 mi SSE 6.9 mph - N/A   Clear
8:35 AM 48.2 °F - 10.4 °F 22% 30.33 in 10.0 mi SSE 6.9 mph - N/A   Clear
8:55 AM 53.6 °F - 12.2 °F 19% 30.33 in 10.0 mi SSE 5.8 mph - N/A   Clear
9:35 AM 59.0 °F - 12.2 °F 16% 30.33 in 10.0 mi ESE 5.8 mph - N/A   Clear
9:55 AM 60.8 °F - 10.4 °F 14% 30.33 in 10.0 mi East 3.5 mph - N/A   Clear
10:15 AM 62.6 °F - 8.6 °F 12% 30.33 in 10.0 mi Calm Calm - N/A   Clear
10:35 AM 62.6 °F - 8.6 °F 12% 30.33 in 10.0 mi NW 3.5 mph - N/A   Clear
10:55 AM 64.4 °F - 10.4 °F 12% 30.33 in 10.0 mi NW 4.6 mph - N/A   Clear
11:15 AM 64.4 °F - 10.4 °F 12% 30.33 in 10.0 mi WSW 4.6 mph - N/A   Clear
11:35 AM 66.2 °F - 8.6 °F 11% 30.32 in 8.0 mi Calm Calm - N/A   Clear
11:55 AM 66.2 °F - 8.6 °F 11% 30.32 in 9.0 mi West 4.6 mph - N/A   Clear
12:15 PM 68.0 °F - 10.4 °F 11% 30.31 in 6.0 mi West 6.9 mph - N/A   Clear
12:35 PM 66.2 °F - 10.4 °F 11% 30.31 in 5.0 mi WNW 8.1 mph - N/A   Clear
12:55 PM 66.2 °F - 10.4 °F 11% 30.30 in 5.0 mi West 8.1 mph - N/A   Clear
1:15 PM 68.0 °F - 8.6 °F 10% 30.30 in 4.0 mi West 8.1 mph - N/A   Clear
1:35 PM 68.0 °F - 8.6 °F 10% 30.29 in 3.0 mi West 9.2 mph - N/A   Clear
1:55 PM 68.0 °F - 8.6 °F 10% 30.29 in 5.0 mi WNW 5.8 mph - N/A   Clear
2:15 PM 68.0 °F - 8.6 °F 10% 30.28 in 6.0 mi NW 6.9 mph - N/A   Clear
2:35 PM 68.0 °F - 8.6 °F 10% 30.28 in 5.0 mi West 5.8 mph - N/A   Clear
2:55 PM 68.0 °F - 8.6 °F 10% 30.28 in 2.5 mi Calm Calm - N/A   Clear
3:15 PM 68.0 °F - 8.6 °F 10% 30.28 in 5.0 mi SW 6.9 mph - N/A   Clear
3:35 PM 68.0 °F - 8.6 °F 10% 30.28 in 1.8 mi South 4.6 mph - N/A   Clear
3:55 PM 66.2 °F - 6.8 °F 10% 30.28 in 10.0 mi SSW 5.8 mph - N/A   Clear
4:15 PM 66.2 °F - 8.6 °F 11% 30.27 in 10.0 mi WSW 8.1 mph - N/A   Clear
4:35 PM 66.2 °F - 8.6 °F 11% 30.28 in 10.0 mi West 6.9 mph - N/A   Clear
4:55 PM 66.2 °F - 8.6 °F 11% 30.28 in 10.0 mi West 9.2 mph - N/A   Clear
5:15 PM 64.4 °F - 8.6 °F 11% 30.29 in 10.0 mi West 6.9 mph - N/A   Clear
5:35 PM 62.6 °F - 8.6 °F 12% 30.29 in 10.0 mi West 5.8 mph - N/A   Clear
6:15 PM 55.4 °F - 8.6 °F 15% 30.31 in 10.0 mi SW 5.8 mph - N/A   Clear
6:35 PM 55.4 °F - 10.4 °F 17% 30.31 in 10.0 mi SW 5.8 mph - N/A   Clear
7:15 PM 46.4 °F 42.9 °F 10.4 °F 23% 30.32 in 10.0 mi SSE 6.9 mph - N/A   Clear
7:35 PM 46.4 °F 43.5 °F 10.4 °F 23% 30.32 in 10.0 mi SSE 5.8 mph - N/A   Clear
7:55 PM 44.6 °F 40.7 °F 12.2 °F 27% 30.32 in 10.0 mi SSE 6.9 mph - N/A   Clear
8:15 PM 42.8 °F 40.1 °F 12.2 °F 29% 30.32 in 10.0 mi SSE 4.6 mph - N/A   Clear
8:35 PM 48.2 °F - 10.4 °F 22% 30.34 in 10.0 mi Calm Calm - N/A   Clear
9:15 PM 39.2 °F 33.6 °F 12.2 °F 33% 30.35 in 10.0 mi SSE 8.1 mph - N/A   Clear
9:35 PM 39.2 °F 33.6 °F 12.2 °F 33% 30.35 in 10.0 mi SSE 8.1 mph - N/A   Clear
9:55 PM 37.4 °F 31.4 °F 12.2 °F 36% 30.36 in 10.0 mi SSE 8.1 mph - N/A   Clear
10:15 PM 37.4 °F 31.4 °F 14.0 °F 38% 30.36 in 10.0 mi SSE 8.1 mph - N/A   Clear
10:35 PM 37.4 °F 30.8 °F 14.0 °F 38% 30.36 in 10.0 mi SSE 9.2 mph - N/A   Clear
10:55 PM 37.4 °F 31.4 °F 14.0 °F 38% 30.36 in 10.0 mi SSE 8.1 mph - N/A   Clear
11:15 PM 35.6 °F 28.6 °F 12.2 °F 38% 30.36 in 10.0 mi SSE 9.2 mph - N/A   Clear
11:35 PM 35.6 °F 28.6 °F 14.0 °F 41% 30.36 in 10.0 mi SSE 9.2 mph - N/A   Clear
11:55 PM 35.6 °F 29.2 °F 12.2 °F 38% 30.36 in 10.0 mi SSE 8.1 mph - N/A   Clear